CW9995 Weather Reports


Display with metric or nautical units.
time (UTC)temp
F
wind
direction
speed
MPH
gust
MPH
rain 1hr
in
rain 24hr
in
rain mn
in
humidity
%
barometer
mb
20200402191503 61 169 2.0 0.0 0.00 0.00 0.00 50 1015.4
20200402190132 61 160 1.0 0.0 0.00 0.00 0.00 50 1015.6
20200402184648 61 159 1.0 0.0 0.00 0.00 0.00 50 1015.8
20200402183243 61 157 2.0 0.0 0.00 0.00 0.00 50 1016.0
20200402181642 61 164 2.0 0.0 0.00 0.00 0.00 49 1016.1
20200402180205 60 160 2.0 0.0 0.00 0.00 0.00 52 1016.2
20200402174627 59 176 2.0 0.0 0.00 0.00 0.00 51 1016.5
20200402173156 59 171 3.0 0.0 0.00 0.00 0.00 52 1016.7
20200402171617 59 151 2.0 0.0 0.00 0.00 0.00 52 1016.7
20200402170106 59 134 3.0 0.0 0.00 0.00 0.00 52 1016.7
20200402164630 59 102 1.0 0.0 0.00 0.00 0.00 51 1016.7
20200402163116 58 132 0.0 0.0 0.00 0.00 0.00 52 1016.7
20200402161639 58 169 1.0 0.0 0.00 0.00 0.00 52 1016.8
20200402160043 56 147 2.0 0.0 0.00 0.00 0.00 55 1017.0
20200402154550 55 141 1.0 0.0 0.00 0.00 0.00 56 1017.3
20200402153203 54 155 0.0 0.0 0.00 0.00 0.00 59 1017.3
20200402151544 52 114 1.0 0.0 0.00 0.00 0.00 62 1017.5
20200402150112 52 172 0.0 0.0 0.00 0.00 0.00 62 1017.8
20200402144552 51 157 1.0 0.0 0.00 0.00 0.00 62 1017.8
20200402143046 51 159 1.0 0.0 0.00 0.00 0.00 63 1017.8
20200402141558 50 136 1.0 0.0 0.00 0.00 0.00 65 1017.7
20200402140059 50 175 2.0 0.0 0.00 0.00 0.00 66 1017.8
20200402134546 49 153 0.0 0.0 0.00 0.00 0.00 68 1017.9
20200402133018 49 163 1.0 0.0 0.00 0.00 0.00 69 1018.0
20200402131518 48 153 1.0 0.0 0.00 0.00 0.00 69 1018.2
20200402130044 47 139 0.0 0.0 0.00 0.00 0.00 71 1018.1
20200402124602 47 140 0.0 0.0 0.00 0.00 0.00 72 1017.9
20200402123046 47 140 0.0 0.0 0.00 0.00 0.00 72 1017.6
20200402121507 46 140 0.0 0.0 0.00 0.00 0.00 72 1017.3
20200402120038 47 130 0.0 0.0 0.00 0.00 0.00 72 1017.3
20200402114504 47 128 0.0 0.0 0.00 0.00 0.00 72 1017.1
20200402113003 46 114 0.0 0.0 0.00 0.00 0.00 74 1017.0
20200402111509 46 111 0.0 0.0 0.00 0.00 0.00 75 1017.0
20200402110002 45 111 0.0 0.0 0.00 0.00 0.00 76 1016.9
20200402104738 45 115 0.0 0.0 0.00 0.00 0.00 78 1016.9
20200402103144 45 116 0.0 0.0 0.00 0.00 0.00 79 1016.9
20200402101706 44 116 0.0 0.0 0.00 0.00 0.00 79 1016.9
20200402100119 44 115 0.0 0.0 0.00 0.00 0.00 79 1016.8
20200402094609 44 116 0.0 0.0 0.00 0.00 0.00 79 1016.9
20200402093144 44 115 0.0 0.0 0.00 0.00 0.00 78 1016.8
20200402091630 45 115 0.0 0.0 0.00 0.00 0.00 77 1016.8
20200402084658 45 119 0.0 0.0 0.00 0.00 0.00 76 1016.7
20200402083141 46 119 0.0 0.0 0.00 0.00 0.00 75 1016.7
20200402081625 46 120 0.0 0.0 0.00 0.00 0.00 76 1016.8
20200402080130 46 119 0.0 0.0 0.00 0.00 0.00 75 1016.8
20200402074715 47 119 0.0 0.0 0.00 0.00 0.00 73 1016.7
20200402073106 47 120 0.0 0.0 0.00 0.00 0.00 72 1016.7
20200402071636 47 119 0.0 0.0 0.00 0.00 0.00 72 1016.6
20200402070230 47 119 0.0 0.0 0.00 0.00 0.00 73 1016.5
20200402064854 47 119 0.0 0.0 0.00 0.00 0.00 73 1016.6
20200402063043 47 119 0.0 0.0 0.00 0.00 0.00 74 1016.6
20200402061637 46 119 0.0 0.0 0.00 0.00 0.00 74 1016.5
20200402060112 46 119 0.0 0.0 0.00 0.00 0.00 75 1016.5
20200402054627 46 119 0.0 0.0 0.00 0.00 0.00 74 1016.4
20200402053138 47 119 0.0 0.0 0.00 0.00 0.00 73 1016.4
20200402051623 47 119 0.0 0.0 0.00 0.00 0.00 73 1016.4
20200402050132 47 119 0.0 0.0 0.00 0.00 0.00 73 1016.4
20200402044622 47 120 0.0 0.0 0.00 0.00 0.00 72 1016.4
20200402043050 48 119 0.0 0.0 0.00 0.00 0.00 70 1016.4
20200402041544 49 119 0.0 0.0 0.00 0.00 0.00 68 1016.3
20200402040053 49 119 0.0 0.0 0.00 0.00 0.00 67 1016.2
20200402034544 49 119 0.0 0.0 0.00 0.00 0.00 68 1016.2
20200402033120 49 119 0.0 0.0 0.00 0.00 0.00 67 1016.3
20200402031546 50 119 0.0 0.0 0.00 0.00 0.00 65 1016.3
20200402030106 50 119 0.0 0.0 0.00 0.00 0.00 65 1016.3
20200402024652 50 119 0.0 0.0 0.00 0.00 0.00 64 1016.0
20200402023055 50 119 0.0 0.0 0.00 0.00 0.00 63 1015.7
20200402021530 50 119 0.0 0.0 0.00 0.00 0.00 63 1015.6
20200402020109 51 119 0.0 0.0 0.00 0.00 0.00 61 1015.6
20200402014617 51 113 0.0 0.0 0.00 0.00 0.00 60 1015.6
20200402013105 52 113 0.0 0.0 0.00 0.00 0.00 59 1015.5
20200402011624 52 113 0.0 0.0 0.00 0.00 0.00 57 1015.5
20200402010028 53 116 0.0 0.0 0.00 0.00 0.00 57 1015.2
20200402004546 53 117 0.0 0.0 0.00 0.00 0.00 55 1015.3
20200402003118 54 117 0.0 0.0 0.00 0.00 0.00 54 1015.3
20200402001528 55 117 0.0 0.0 0.00 0.00 0.00 51 1015.2
20200402000230 55 122 0.0 0.0 0.00 0.00 0.00 51 1015.2
20200401234553 56 113 1.0 0.0 0.00 0.00 0.00 49 1015.2
20200401233050 56 157 0.0 0.0 0.00 0.00 0.00 47 1015.4
20200401231554 56 110 0.0 0.0 0.00 0.00 0.00 47 1015.4
20200401224524 57 151 0.0 0.0 0.00 0.00 0.00 47 1015.1
20200401223008 57 153 0.0 0.0 0.00 0.00 0.00 47 1015.3
20200401221648 57 151 0.0 0.0 0.00 0.00 0.00 47 1015.4
20200401220115 58 148 0.0 0.0 0.00 0.00 0.00 45 1015.3
20200401214642 58 171 1.0 0.0 0.00 0.00 0.00 46 1015.2
20200401213106 57 136 0.0 0.0 0.00 0.00 0.00 46 1015.2
20200401211644 57 136 0.0 0.0 0.00 0.00 0.00 46 1015.1
20200401210114 57 150 0.0 0.0 0.00 0.00 0.00 48 1015.2
20200401204626 57 128 1.0 0.0 0.00 0.00 0.00 47 1015.2
20200401203057 56 150 0.0 0.0 0.00 0.00 0.00 48 1015.3
20200401201634 56 167 0.0 0.0 0.00 0.00 0.00 47 1015.4
20200401200101 55 171 2.0 0.0 0.00 0.00 0.00 47 1015.5
20200401194559 55 163 3.0 0.0 0.00 0.00 0.00 51 1015.8
20200401193110 55 159 1.0 0.0 0.00 0.00 0.00 51 1016.1